Find Starlink 37272

NORAD ID: 68727 Int'l Des: 2026-081 Owner: SPXS Country: US Constellation: starlink operational
LEOCIRCULAR

Live Position

Loading 3D Globe...

About Starlink 37272

Description loading...

Upcoming Passes

Passes for default location (London). Set your location on the main map for personalized predictions.

Altitude History

Loading altitude history...

Two-Line Element Set

1 68727C 26081AD 26105.39979167 .00630170 00000+0 80569-3 0 1058
2 68727 53.1628 237.9134 0006885 304.8373 107.2020 16.06210117 19
Epoch: Apr 15, 2026 • Age: 16 hours

Current Status

Altitude 259.9 km
Velocity 7.75 km/s
Sub-Earth Point -30.28°S, 20.18°W
Launch Date Apr 14, 2026
Age 1 days
Type internet

Technical Details

Classification Payload
Mass 575.00 kg
Dry Mass 530.00 kg
Total Mass 575.00 kg
Length 0.30 m
Diameter 4.10 m
Span 29.00 m
Shape Box + pan
Manufacturer SPXS
Bus Type Starlink V2MO
Phase Status In Orbit
Owner/State SPXS/US

Most Searched